Location: Aranbee
(34.0885°N, 118.2342°W)
Time: 04:57:58
(UTC+00:00)

Courier 1B - Pass Details

Date: 05 December 2020
Orbit: 962 x 1209 km, 28.3° (Epoch: 17 January)

Event Time Altitude Azimuth Distance (km) Brightness Sun altitude
Rises 02:59:06 0° 234° (SW) 3,631 11.5 -27.5°
Reaches altitude 10° 03:01:58 10° 225° (SW) 2,682 10.5 -28.1°
Enters shadow 03:07:31 34° 166° (SSE) 1,525 8.4 -29.2°
